EW4907 Weather Reports


time (UTC)temp
F
wind
direction
speed
knots
gust
knots
rain 1hr
in
rain 24hr
in
rain mn
in
humidity
%
barometer
mb
20260506224543 62 344 8.7 16.5 0.00 0.00 0.00 80 1011.8
20260506223044 63 338 4.3 17.4 0.00 0.00 0.00 80 1011.7
20260506221545 63 45 7.0 13.9 0.00 0.00 0.00 79 1011.3
20260506220045 63 335 7.0 17.4 0.00 0.00 0.00 78 1011.6
20260506214533 64 331 6.1 19.1 0.00 0.00 0.00 78 1011.5
20260506213032 65 1 8.7 16.5 0.00 0.00 0.00 77 1011.4
20260506211534 67 307 8.7 17.4 0.00 0.00 0.00 75 1011.2
20260506210030 68 63 7.0 17.4 0.00 0.00 0.00 74 1011.1
20260506204529 68 349 10.4 15.6 0.00 0.00 0.00 76 1011.2
20260506203028 69 340 11.3 17.4 0.00 0.00 0.00 76 1011.6
20260506201528 69 306 8.7 18.2 0.00 0.00 0.00 78 1011.4
20260506200026 70 342 9.6 19.1 0.00 0.00 0.00 76 1011.3
20260506194525 70 331 9.6 16.5 0.00 0.00 0.00 78 1011.1
20260506193031 72 331 9.6 16.5 0.00 0.00 0.00 76 1010.9
20260506191524 77 8 7.0 11.3 0.00 0.00 0.00 72 1010.8
20260506190024 77 3 3.5 7.8 0.00 0.00 0.00 74 1011.2
20260506184525 77 310 2.6 8.7 0.00 0.00 0.00 74 1011.1
20260506183022 77 113 2.6 5.2 0.00 0.00 0.00 75 1010.9
20260506181517 75 13 3.5 7.0 0.00 0.00 0.00 76 1011.1
20260506180017 74 121 0.9 6.1 0.00 0.00 0.00 78 1011.0
20260506174515 71 45 1.7 7.8 0.00 0.00 0.00 81 1011.2
20260506173015 70 88 2.6 7.8 0.00 0.00 0.00 81 1011.1
20260506171513 69 64 2.6 7.8 0.00 0.00 0.00 81 1011.4
20260506170013 68 53 5.2 10.4 0.00 0.00 0.00 82 1011.3
20260506164512 66 280 3.5 9.6 0.00 0.00 0.00 85 1011.7
20260506163013 64 39 6.1 14.8 0.00 0.00 0.00 87 1011.9
20260506161507 66 323 10.4 19.1 0.00 0.00 0.00 85 1012.2
20260506160001 72 1 8.7 14.8 0.00 0.00 0.00 81 1012.1
20260506154602 75 96 1.7 4.3 0.00 0.00 0.00 87 1011.7
20260506153058 75 94 0.0 2.6 0.00 0.00 0.00 88 1011.4
20260506151555 75 88 1.7 2.6 0.00 0.00 0.00 87 1010.9
20260506150100 75 160 0.0 3.5 0.00 0.00 0.00 88 1010.5
20260506144603 75 146 2.6 4.3 0.00 0.00 0.00 88 1010.2
20260506143054 74 183 2.6 7.8 0.00 0.00 0.00 89 1010.1
20260506141550 74 176 2.6 4.3 0.00 0.00 0.00 89 1009.8
20260506134545 74 169 1.7 4.3 0.00 0.00 0.00 91 1009.3
20260506133056 73 146 2.6 5.2 0.00 0.00 0.00 92 1009.4
20260506131546 73 131 1.7 7.0 0.00 0.00 0.00 93 1009.3
20260506130107 73 98 1.7 6.1 0.00 0.00 0.00 93 1009.1
20260506124541 73 131 1.7 4.3 0.00 0.00 0.00 93 1009.0
20260506123046 73 129 0.9 4.3 0.00 0.00 0.00 93 1009.1
20260506121549 73 98 0.9 3.5 0.00 0.00 0.00 92 1009.1
20260506120037 73 134 0.9 1.7 0.00 0.00 0.00 92 1009.1
20260506114536 73 143 0.0 1.7 0.00 0.00 0.00 91 1008.9
20260506113039 73 122 0.0 1.7 0.00 0.00 0.00 91 1009.0
20260506111534 73 129 0.0 3.5 0.00 0.00 0.00 91 1008.9
20260506110040 73 143 0.9 4.3 0.00 0.00 0.00 91 1008.8
20260506104530 73 146 1.7 7.8 0.00 0.00 0.00 91 1008.6
20260506103030 73 200 2.6 7.0 0.00 0.00 0.00 91 1008.5
20260506101533 73 209 2.6 8.7 0.00 0.00 0.00 91 1008.3
20260506100029 73 209 3.5 11.3 0.00 0.00 0.00 91 1008.3
20260506094529 73 176 5.2 10.4 0.00 0.00 0.00 91 1008.2
20260506093033 73 165 5.2 8.7 0.00 0.00 0.00 91 1008.0
20260506091527 73 188 4.3 9.6 0.00 0.00 0.00 91 1007.8
20260506090033 73 166 2.6 10.4 0.00 0.00 0.00 91 1007.7
20260506084532 73 181 4.3 13.0 0.00 0.00 0.00 91 1007.7
20260506083030 73 170 5.2 9.6 0.00 0.00 0.00 91 1007.8
20260506081523 73 138 4.3 9.6 0.00 0.00 0.00 91 1007.8
20260506073019 73 221 5.2 11.3 0.00 0.00 0.00 90 1008.2
20260506071519 74 161 6.1 10.4 0.00 0.00 0.00 89 1008.4
20260506061514 74 207 7.0 13.0 0.00 0.00 0.00 89 1008.3
20260506044506 75 165 7.0 12.2 0.00 0.00 0.00 87 1008.6
20260506043002 75 228 7.0 15.6 0.00 0.00 0.00 88 1008.5
20260506041502 75 167 4.3 11.3 0.00 0.00 0.00 87 1008.4
20260506040100 75 175 5.2 10.4 0.00 0.00 0.00 87 1008.3
20260506034615 75 179 5.2 10.4 0.00 0.00 0.00 87 1008.1
20260506033058 75 167 4.3 10.4 0.00 0.00 0.00 86 1007.9
20260506031604 75 167 3.5 7.8 0.00 0.00 0.00 86 1007.7
20260506030057 76 170 4.3 10.4 0.00 0.00 0.00 85 1007.5
20260506024558 76 154 3.5 9.6 0.00 0.00 0.00 84 1007.3
20260506023101 76 154 5.2 11.3 0.00 0.00 0.00 83 1007.0
20260506021555 77 176 4.3 9.6 0.00 0.00 0.00 81 1006.7
20260506020057 77 171 3.5 13.0 0.00 0.00 0.00 81 1006.5
20260506014554 77 160 2.6 7.8 0.00 0.00 0.00 80 1006.4
20260506013107 78 172 2.6 6.1 0.00 0.00 0.00 80 1006.3
20260506011558 79 122 2.6 5.2 0.00 0.00 0.00 78 1006.3
20260506010112 79 184 2.6 6.1 0.00 0.00 0.00 76 1006.3
20260506004551 80 154 0.9 3.5 0.00 0.00 0.00 74 1006.4
20260506003050 81 205 2.6 6.1 0.00 0.00 0.00 73 1006.1
20260506001650 81 183 3.5 6.1 0.00 0.00 0.00 72 1006.2
20260506000053 81 169 4.3 7.8 0.00 0.00 0.00 72 1005.9
20260505234548 82 176 5.2 9.6 0.00 0.00 0.00 71 1005.9
20260505233059 82 194 4.3 10.4 0.00 0.00 0.00 69 1005.9
20260505231547 82 221 2.6 8.7 0.00 0.00 0.00 70 1005.9
20260505230053 82 203 4.3 12.2 0.00 0.00 0.00 69 1005.8